RH
21 23 25 27 30 31 32 32 32 34 35 34 33 34 34 33 32 33 36 37 38 37 36 37 39 39 38 36 34 32 31 32 34 36 38 39 41 42 41 42 43 44 45 44 44 43 42 43 44 45 44 43 43 42 43 42 40 40 39 39 39 40 39 36 36 39 37 33 30 28 27 26 25 24 26 27 27 29 31 37 44 46 47 49 47
23 27 30 31 32 33 35 35 33 32 33 34 33 34 34 34 33 32 33 33 35 35 35 36 37 38 38 36 35 33 33 33 32 33 35 38 41 45 45 44 45 46 46 46 46 45 45 45 45 46 47 46 44 43 43 44 42 41 42 41 37 36 36 34 35 38 36 32 29 27 27 26 23 24 33 36 29 28 36 42 45 45 45 46 45
26 29 30 30 32 35 36 36 35 32 31 31 32 33 33 34 34 33 32 32 33 34 35 36 36 37 38 38 36 35 35 34 34 35 37 39 41 44 46 46 47 48 48 48 48 48 48 48 46 46 46 45 45 44 43 44 44 45 46 42 37 36 34 31 35 41 35 30 29 27 27 27 27 28 34 40 33 28 34 40 42 42 41 41 42
26 24 23 26 31 35 36 35 34 33 32 31 31 33 33 35 36 36 36 34 35 37 38 39 37 38 40 41 40 39 39 38 39 39 40 41 42 43 44 46 49 50 51 50 50 50 51 51 49 46 46 45 45 44 42 42 42 43 43 42 39 37 33 28 33 41 37 30 29 29 29 30 33 28 24 28 29 28 29 33 38 40 37 37 40
24 21 19 22 27 32 35 36 36 35 36 34 33 33 33 36 38 39 39 39 39 40 41 43 43 44 44 44 45 44 44 43 43 41 40 40 41 42 43 45 48 51 52 52 52 53 53 54 53 51 48 46 45 43 42 41 39 39 41 41 39 35 32 28 27 32 35 34 31 29 31 34 34 27 22 23 23 26 29 30 35 37 35 35 37
23 20 19 21 24 29 33 36 38 38 37 37 37 35 35 37 39 42 43 43 44 45 46 47 48 48 46 45 44 43 41 40 40 39 39 40 40 41 41 43 46 49 52 54 55 55 54 55 55 55 53 49 47 44 42 41 38 37 39 40 39 35 33 31 29 28 30 34 34 31 32 32 29 25 24 25 22 22 24 25 32 37 34 33 34
25 23 21 22 25 29 32 36 39 37 36 37 38 39 40 41 43 45 47 47 48 49 52 53 51 48 47 46 44 43 42 40 40 40 41 42 43 44 44 45 46 47 48 51 54 56 56 56 56 57 56 53 49 45 42 41 38 37 39 40 38 35 32 32 33 30 26 27 30 30 29 30 31 29 24 22 23 21 17 18 25 32 33 33 33
26 27 25 25 29 31 33 36 38 37 39 40 41 42 44 45 48 50 50 50 52 54 57 58 55 52 51 50 49 48 47 45 45 46 47 48 49 49 49 49 49 48 46 46 50 53 55 56 56 56 55 52 48 45 42 40 37 34 37 41 40 35 31 31 33 31 27 25 24 24 27 31 31 28 25 23 24 23 18 16 17 19 24 29 31
24 27 28 28 31 32 34 37 39 42 45 46 45 45 47 50 53 55 55 55 58 61 62 62 60 58 57 54 52 51 50 50 50 51 52 52 51 50 50 49 49 48 48 47 48 52 53 55 55 53 51 47 44 42 40 39 36 32 32 37 39 35 30 30 31 31 29 27 24 23 25 27 27 26 26 24 23 25 22 18 15 14 15 19 24
26 29 31 31 34 36 39 43 47 51 52 51 51 51 54 57 59 60 61 61 64 66 65 65 66 64 60 58 57 56 54 53 52 52 51 51 50 49 50 49 48 48 47 46 46 50 52 52 51 49 47 45 43 41 40 38 36 34 32 33 34 33 30 29 31 33 33 30 28 27 26 25 25 26 26 25 24 25 24 20 17 16 14 14 16
34 34 36 38 41 44 48 52 56 58 58 57 57 57 59 63 64 64 66 67 69 70 69 68 68 64 60 59 59 58 56 55 53 51 50 50 49 49 49 49 48 48 48 47 45 45 47 47 46 45 46 46 45 43 42 40 38 36 34 33 32 31 31 30 31 33 35 35 34 33 31 27 25 24 24 24 24 23 22 21 19 18 17 16 16
41 41 45 49 51 53 55 58 60 61 62 63 63 63 64 66 65 64 65 65 64 64 64 63 62 60 58 57 56 55 55 54 52 50 50 49 49 49 48 47 47 47 46 47 46 44 43 43 44 44 44 46 46 45 43 41 39 37 35 34 33 32 32 33 33 34 34 35 36 35 32 29 26 25 24 23 23 23 23 23 22 21 20 19 18
45 49 55 57 58 58 59 60 61 62 63 64 64 64 63 61 58 56 55 54 52 51 50 48 48 49 48 46 45 47 49 49 49 49 49 48 49 48 47 46 46 45 46 47 47 46 44 43 43 44 43 44 45 43 43 43 41 39 36 35 35 34 34 35 35 36 36 37 37 35 33 31 29 27 25 25 25 26 26 26 26 24 23 22 21
51 57 61 62 61 61 62 62 62 62 61 61 60 58 56 53 51 49 47 45 43 42 40 38 37 39 38 37 36 37 38 40 41 41 43 45 47 48 48 48 47 46 46 47 48 49 48 46 46 46 45 45 45 44 44 44 42 40 39 37 36 36 36 36 37 38 39 39 39 38 36 34 32 30 28 27 27 27 28 29 29 29 28 26 25
56 61 63 63 63 63 63 62 61 59 58 57 55 52 48 45 43 42 41 41 39 38 36 33 33 35 35 34 33 33 34 35 34 34 37 40 43 45 46 47 48 48 49 49 50 50 51 51 50 48 48 47 46 46 46 45 43 42 41 40 39 38 37 36 38 40 42 43 43 42 41 39 37 35 32 30 29 29 29 30 31 33 35 32 27
61 63 63 62 62 63 62 61 58 56 54 52 50 46 41 38 39 38 38 39 38 36 34 32 33 33 34 33 33 34 36 35 34 35 39 41 43 44 44 45 48 51 52 51 51 52 53 53 51 49 50 50 49 48 48 46 44 43 44 43 41 41 40 40 42 43 44 44 44 45 44 44 41 39 37 35 34 33 33 33 32 34 38 40 36
63 64 62 61 62 62 60 58 55 52 50 47 44 41 37 36 37 37 36 37 36 34 34 34 34 33 34 35 35 37 38 38 38 40 44 46 48 49 49 50 53 55 56 55 56 57 56 56 55 53 52 52 52 50 49 48 46 46 46 46 45 44 45 46 45 45 44 43 43 44 45 45 44 43 42 41 40 39 38 38 37 36 38 42 44
61 60 60 60 60 58 56 53 50 48 45 43 41 39 37 36 35 36 36 36 36 35 35 36 35 35 37 38 39 40 42 43 44 46 48 48 50 52 53 55 58 59 60 61 61 60 58 59 59 57 54 54 54 53 52 51 50 48 48 48 48 49 49 49 48 47 46 44 43 44 45 47 48 48 48 48 47 47 46 45 44 43 42 43 45
59 58 59 59 57 54 52 49 47 45 43 42 41 38 37 37 36 37 37 37 37 37 38 38 38 40 41 41 43 45 47 47 48 49 50 50 51 53 54 55 58 61 61 62 61 60 60 60 60 59 58 57 56 56 55 54 53 51 50 49 50 50 50 50 50 49 49 48 47 47 48 50 51 52 54 55 55 55 54 52 52 51 49 48 46
58 57 57 55 52 50 48 46 45 44 42 41 39 36 36 39 40 40 40 40 40 40 40 40 40 43 44 44 47 50 51 53 52 50 52 54 55 56 57 58 61 63 64 65 64 64 64 63 62 62 61 61 60 59 58 57 55 54 53 52 52 51 51 50 49 49 50 51 52 53 54 53 53 53 54 55 57 58 58 57 57 55 54 53 51
54 52 51 49 48 47 46 46 45 42 40 38 36 35 37 40 42 42 41 42 42 42 42 42 43 46 48 48 51 53 53 56 56 54 58 61 60 63 65 66 69 68 66 67 68 68 68 68 67 66 66 65 63 61 61 59 58 57 56 55 54 53 52 51 50 49 49 51 53 55 56 56 56 55 55 54 54 55 57 58 59 59 57 55 53
48 46 46 45 45 44 45 44 41 39 38 36 35 36 37 39 42 43 42 43 44 45 45 46 46 49 51 51 52 53 52 55 58 59 63 67 69 76 78 73 74 76 71 69 73 74 72 72 73 72 71 68 64 62 61 60 59 59 57 57 56 54 52 51 50 49 49 49 51 53 56 57 57 58 59 59 58 57 57 58 59 60 59 57 54
42 41 41 43 43 42 42 41 39 38 38 36 36 37 37 37 40 43 44 44 46 48 49 50 51 51 53 52 51 51 50 52 55 56 64 72 78 87 89 79 79 85 81 77 78 79 78 78 78 76 73 68 64 61 60 59 59 59 58 57 55 53 52 51 50 50 49 49 50 53 55 55 56 57 58 60 62 62 62 62 61 61 60 59 56
37 38 38 40 40 39 40 39 38 38 37 37 37 37 38 38 38 42 46 48 49 51 53 54 54 53 52 49 48 50 49 49 50 54 65 74 74 82 90 88 87 90 88 85 84 84 83 80 78 74 70 65 62 60 59 59 59 60 58 57 56 54 53 53 53 52 52 53 54 55 55 55 56 57 57 57 59 60 61 61 61 62 62 62 60
34 36 36 37 37 37 38 38 38 37 36 37 38 38 39 40 38 39 44 50 53 53 55 55 54 53 53 50 48 51 51 49 49 56 67 70 67 72 80 82 84 84 81 79 78 78 78 76 72 69 66 63 61 60 60 60 61 61 59 58 57 56 56 56 56 56 56 57 57 56 58 60 61 63 63 62 62 61 60 59 59 59 59 59 59
33 35 35 36 36 36 37 37 38 37 37 37 38 39 40 41 40 37 40 49 55 55 56 55 53 52 54 53 52 53 53 51 54 63 67 63 60 64 69 71 73 73 70 69 69 69 70 70 67 65 64 63 63 62 62 61 61 62 60 59 59 59 59 58 58 59 58 59 58 58 61 64 65 67 69 69 69 69 68 67 66 64 62 61 60
31 34 35 36 35 36 36 37 38 37 37 38 38 40 41 41 40 38 39 47 54 57 59 58 54 53 57 58 53 51 52 56 61 63 58 52 54 60 64 63 62 62 62 64 65 65 65 65 64 62 62 63 63 63 63 62 61 61 61 60 60 60 60 58 59 60 60 61 62 62 65 67 68 69 70 72 75 77 79 82 81 76 72 71 70
31 34 35 36 36 36 36 36 37 38 39 40 39 40 41 41 40 39 41 47 54 60 65 64 59 57 60 59 53 52 57 60 58 52 46 50 57 60 59 57 56 57 58 59 61 63 64 64 65 64 64 64 63 63 62 62 61 61 62 64 65 66 66 64 64 63 62 64 66 67 70 70 69 70 71 72 76 79 83 88 89 86 83 80 77
30 33 35 36 35 35 36 36 38 39 40 41 40 41 42 42 40 39 43 50 56 64 69 69 66 63 60 56 55 58 61 58 52 50 52 58 61 58 56 56 57 56 57 59 60 60 61 63 64 64 65 66 67 68 67 67 67 66 67 71 73 71 69 70 70 69 67 67 68 69 74 74 72 73 74 76 79 82 85 87 87 86 86 84 82
30 33 35 35 35 35 35 37 38 40 42 42 41 42 42 43 42 42 45 50 58 67 70 70 70 67 62 60 61 62 60 56 56 60 62 62 60 58 59 61 60 59 60 61 59 60 62 64 65 66 66 67 68 70 72 74 75 75 74 76 80 77 71 68 69 71 71 71 71 72 76 80 81 81 82 87 93 96 96 94 92 91 89 86 87
29 32 34 34 35 35 35 37 39 41 44 44 42 42 43 43 44 47 49 50 58 68 70 69 71 69 67 68 66 63 62 62 65 65 63 62 62 62 63 63 64 65 65 63 63 66 66 61 61 62 61 61 61 63 70 77 77 79 81 83 87 90 89 85 80 79 80 81 82 83 84 87 90 89 86 88 95 100 102 101 100 99 97 94 92
26 31 35 36 37 37 36 38 40 43 46 46 43 43 44 44 46 51 53 53 61 71 71 70 73 74 72 71 68 68 70 69 68 67 65 66 66 65 64 64 65 67 68 67 66 66 61 55 54 54 52 53 53 55 70 82 82 84 90 91 91 95 98 98 96 94 93 94 93 94 94 94 94 92 86 82 82 86 92 100 104 102 100 100 98
24 30 36 38 37 37 38 39 41 44 48 48 45 44 46 47 49 54 58 60 68 75 73 73 75 74 72 70 70 72 72 71 70 70 69 70 70 68 66 66 68 69 67 63 57 53 51 51 53 52 46 46 46 48 64 83 89 91 97 97 97 99 98 99 101 100 100 99 99 101 101 99 99 97 95 93 86 80 77 81 92 100 102 102 101
26 32 37 39 38 39 40 41 43 47 50 49 47 47 49 50 52 59 66 69 73 75 72 70 71 70 70 72 74 74 73 73 74 73 73 74 74 72 69 67 68 68 65 61 56 52 51 51 51 49 45 46 46 43 57 82 95 97 100 100 100 101 100 100 100 99 98 96 96 99 99 96 97 98 100 100 97 92 85 74 71 78 86 93 98
31 35 39 39 39 41 42 43 47 51 52 50 49 51 53 54 57 66 74 76 75 73 69 67 66 67 71 75 76 76 76 77 77 76 76 78 78 77 71 67 68 69 69 72 72 68 66 63 58 52 47 48 46 44 62 91 101 99 101 101 100 101 101 100 101 100 99 97 96 98 97 94 96 98 99 99 98 98 98 90 80 72 71 75 79
33 38 40 41 42 43 44 47 51 55 55 53 53 55 59 62 64 71 77 79 75 70 65 63 64 68 74 77 77 78 80 81 81 79 78 79 79 75 69 68 72 74 75 78 76 74 73 70 65 59 53 50 43 43 66 96 104 100 101 101 99 101 100 100 101 100 100 100 100 100 100 98 98 98 99 99 99 99 99 100 98 91 85 82 73
32 37 40 43 45 45 48 51 56 58 56 56 59 61 65 70 72 74 76 74 72 68 66 68 71 73 76 79 79 81 81 81 80 78 74 74 74 70 69 71 75 78 82 82 79 77 76 75 75 72 66 60 48 39 54 87 103 101 100 101 100 100 100 100 101 100 100 100 100 99 100 101 99 98 99 100 100 100 99 100 100 99 99 97 89
35 40 44 47 48 49 52 55 58 60 58 60 64 67 70 74 75 75 73 72 73 74 73 75 76 74 75 78 78 76 75 75 75 72 69 70 73 74 75 77 79 81 82 83 84 83 79 77 79 77 73 73 67 50 48 76 102 103 100 101 100 100 101 100 99 100 100 99 99 100 99 100 100 100 100 101 100 101 101 101 100 100 99 100 98
39 44 48 50 51 53 56 58 60 62 63 65 68 70 73 76 76 75 75 76 79 79 77 76 75 73 74 75 73 70 67 68 69 67 66 71 77 79 79 79 83 85 83 81 84 85 83 83 83 81 78 81 83 71 55 62 87 101 101 100 101 100 100 101 100 100 99 98 97 98 98 100 101 100 100 101 102 101 101 101 100 99 99 99 98
43 49 51 53 54 56 60 64 64 64 67 69 71 72 75 77 77 78 80 82 81 79 77 75 74 74 74 73 70 66 62 61 63 66 71 75 77 75 73 76 83 87 86 86 86 85 87 90 89 84 79 75 76 73 57 49 70 97 103 99 100 102 99 99 101 99 97 96 95 95 96 97 98 100 101 100 93 86 87 95 101 102 101 98 94
47 53 54 56 59 60 63 66 66 66 69 72 74 77 79 80 81 84 85 83 81 79 77 76 76 76 74 71 68 65 62 61 64 70 76 76 69 63 66 73 80 85 86 87 87 88 90 91 86 80 75 68 64 62 53 44 58 87 104 102 99 101 101 100 101 101 99 97 94 92 91 92 94 97 101 99 85 67 65 79 94 100 99 96 95
52 57 58 60 65 66 66 68 69 70 72 74 77 80 82 84 87 87 85 83 82 80 76 75 78 78 74 70 68 66 67 71 73 73 72 69 63 64 72 77 79 83 85 85 87 91 92 89 82 75 69 62 56 53 50 45 46 64 90 103 101 99 101 100 99 100 100 99 97 95 93 92 93 94 99 101 87 69 65 75 84 89 91 92 96
55 60 60 63 69 72 71 72 74 74 74 75 78 82 84 87 88 85 83 84 82 78 74 73 75 76 74 74 74 72 73 74 72 68 67 65 63 69 82 88 84 84 87 86 86 89 89 87 83 77 69 63 60 56 53 52 48 49 69 95 104 100 100 102 101 100 100 100 99 97 94 93 94 98 100 97 86 76 79 85 83 82 84 85 87
55 60 62 65 71 75 75 76 78 79 78 76 77 82 86 87 84 82 83 83 80 77 75 74 73 74 75 77 76 73 69 68 66 66 72 74 71 74 85 92 93 95 96 92 88 86 87 87 85 80 74 68 67 65 61 61 60 55 63 88 104 103 99 100 100 100 100 101 100 99 98 96 97 97 91 81 75 76 82 86 87 88 90 90 91
56 61 66 68 71 74 77 78 79 81 80 77 76 80 85 84 81 80 81 79 77 77 75 72 73 75 76 76 73 69 67 67 70 75 82 85 83 85 90 92 93 96 96 92 87 82 80 80 78 76 75 71 68 69 68 66 66 64 67 81 97 104 103 101 102 101 100 101 100 99 99 97 94 91 86 84 88 93 92 92 93 95 97 99 100
61 65 70 73 74 77 79 80 80 82 82 79 76 76 78 77 77 79 78 75 74 74 71 70 73 76 75 75 73 71 72 74 75 79 87 91 91 93 94 92 90 90 88 86 83 80 78 78 75 74 74 73 72 72 73 72 72 72 71 72 81 90 91 92 97 100 98 99 101 101 100 98 95 92 91 92 95 95 91 89 88 87 90 94 94
66 68 73 78 80 81 83 83 83 82 82 82 79 75 74 75 76 77 75 73 72 70 70 73 76 76 77 80 77 75 78 82 81 84 90 95 95 94 93 92 89 86 84 82 80 78 77 76 75 74 74 75 75 76 76 78 79 79 78 76 79 82 81 80 86 90 88 87 88 89 91 92 90 87 86 87 88 89 89 89 87 82 80 81 82
70 72 76 82 85 87 87 87 86 85 84 84 81 77 74 76 79 78 75 75 74 72 72 77 81 81 83 87 87 85 86 86 86 89 93 93 91 89 88 88 86 82 80 79 77 77 76 75 74 74 73 74 74 74 75 78 81 82 83 84 87 90 90 88 87 86 85 85 85 86 89 93 94 92 91 91 92 94 94 93 90 84 77 75 75
76 77 81 85 88 89 89 89 88 87 87 86 84 80 77 78 79 77 77 78 78 77 77 81 87 91 91 91 92 92 93 92 89 89 90 88 87 87 87 84 81 76 72 72 74 75 74 74 75 77 77 78 78 79 83 89 91 93 94 95 96 97 98 98 96 93 93 96 97 97 98 98 98 96 95 93 92 92 92 90 87 84 79 76 75
81 83 86 88 89 88 89 89 89 89 89 88 85 82 80 80 79 77 78 78 79 84 89 91 95 99 98 95 92 90 93 95 92 88 87 85 86 92 95 91 85 78 75 78 86 89 86 84 88 90 89 90 91 93 96 99 100 100 100 100 101 100 100 100 100 100 101 101 101 101 101 98 94 91 91 91 89 87 87 85 84 84 84 81 78
86 88 90 92 92 90 89 90 90 91 90 88 86 82 80 80 79 78 80 78 77 84 93 94 95 97 96 93 90 88 89 90 86 84 86 84 82 86 93 97 97 95 92 94 99 101 99 98 100 100 99 100 101 101 101 101 100 101 100 100 101 100 99 98 98 99 102 100 98 99 99 96 91 85 81 81 82 81 80 78 78 79 81 83 83
Wind_Speed
11 12 12 13 13 13 13 12 12 13 13 13 13 13 13 13 13 12 12 11 12 12 11 11 11 10 10 10 11 10 10 10 11 12 12 13 13 15 18 19 18 18 19 19 19 19 17 14 12 13 15 15 14 12 10 10 12 15 14 12 11 11 10 8 7 8 12 14 13 13 14 16 19 16 13 12 11 9 8 7 6 7 6 6 6
10 12 12 13 13 14 13 12 13 14 14 14 15 15 15 14 15 13 12 12 12 12 12 11 11 10 10 10 10 10 10 10 10 10 10 10 10 12 17 19 19 20 20 21 20 19 17 14 12 12 12 12 12 11 10 12 15 16 13 9 8 9 9 8 7 7 9 11 12 13 14 14 12 10 12 11 9 8 7 7 7 7 7 6 6
11 13 14 15 15 15 14 14 14 15 15 15 16 16 15 15 15 14 12 12 12 12 12 11 10 10 10 10 10 10 10 10 10 10 11 12 12 14 19 20 20 20 20 20 20 19 18 15 14 13 13 12 12 11 11 12 12 10 9 8 8 9 10 10 8 6 7 11 12 10 9 9 7 8 11 11 9 9 9 8 7 7 7 7 7
13 14 15 17 17 17 16 15 15 15 15 15 15 15 15 15 14 13 12 12 11 11 12 12 12 12 12 13 14 15 14 15 16 15 16 18 18 18 19 19 17 16 16 17 18 18 17 16 15 14 14 13 13 12 12 12 11 10 9 8 7 8 9 9 6 5 5 7 8 7 8 8 7 7 6 5 9 10 9 8 8 7 7 7 8
14 14 15 17 18 18 18 17 15 15 15 15 15 14 14 13 13 12 11 11 11 11 11 11 11 12 12 13 14 15 15 15 16 15 15 15 15 14 13 13 13 13 13 14 14 15 15 15 14 14 14 13 13 13 13 12 12 11 9 8 8 9 9 9 7 6 5 5 6 7 7 6 5 8 10 9 11 8 8 9 9 8 8 8 8
13 14 14 16 17 17 17 16 16 15 14 14 14 13 12 11 11 11 10 9 10 10 10 9 9 8 8 8 9 9 9 9 9 9 8 8 9 8 8 9 10 11 12 12 13 13 13 13 13 14 13 13 13 13 12 12 11 11 10 9 8 8 8 9 9 8 7 7 8 9 9 8 8 10 9 8 10 8 9 9 10 9 9 9 9
12 12 14 15 16 16 16 15 15 14 12 11 10 11 11 9 9 9 8 8 8 7 8 8 8 7 7 8 8 8 9 8 8 7 7 8 8 8 8 8 9 10 11 11 11 12 12 12 13 13 13 13 12 12 12 11 11 10 10 9 7 7 7 9 9 8 8 8 8 9 11 11 10 10 7 7 8 8 10 10 9 9 10 10 10
12 12 13 14 15 15 15 14 13 12 11 10 9 9 10 9 8 8 7 6 6 6 7 7 6 6 6 7 7 8 8 9 9 8 8 8 9 9 9 9 10 10 11 11 11 11 11 12 12 12 12 12 12 12 11 11 10 9 8 8 8 7 8 9 8 8 8 9 8 8 9 9 10 11 10 9 8 7 9 11 12 12 11 11 10
13 12 13 14 15 14 14 13 12 11 11 11 10 9 9 9 8 8 7 6 6 6 6 6 6 5 5 5 6 7 7 8 8 8 8 9 9 10 10 10 10 10 11 11 11 11 11 11 11 11 11 11 11 11 11 10 10 9 8 8 8 8 8 8 8 7 8 8 8 8 8 8 9 10 11 12 10 9 8 8 11 13 12 12 10
11 11 12 14 14 13 13 14 13 12 12 11 11 10 10 10 9 9 8 6 5 5 5 5 5 5 4 5 6 6 7 7 8 9 9 9 10 10 10 10 10 10 10 10 11 11 10 10 10 9 10 10 10 10 10 10 10 10 10 9 9 8 7 7 7 7 7 7 7 7 8 8 8 9 10 11 11 11 9 9 12 12 12 13 13
9 9 11 13 13 14 14 14 14 13 13 13 12 11 11 11 11 10 8 7 6 5 4 4 3 4 4 5 6 7 8 8 9 9 9 10 11 11 10 10 10 10 10 10 10 10 9 9 9 9 9 9 9 9 9 9 9 9 9 10 9 9 8 8 7 7 6 7 7 7 8 9 8 9 9 9 9 10 9 9 12 12 12 15 14
9 9 10 13 13 14 14 14 14 14 14 13 13 12 12 11 11 11 9 8 7 6 5 4 3 3 3 4 5 6 7 8 9 10 10 10 11 11 11 11 10 10 10 10 10 9 9 8 8 8 8 9 9 9 9 8 9 9 9 9 9 9 8 8 7 7 7 7 7 7 8 8 9 9 9 10 10 11 11 10 12 13 12 14 15
9 9 9 10 11 13 15 15 15 15 14 14 14 13 12 12 12 11 10 8 7 6 4 4 3 3 3 3 5 5 6 7 9 9 10 10 10 10 10 10 10 10 10 10 9 8 8 8 7 7 7 8 8 8 8 9 9 9 9 9 8 8 8 8 8 7 7 7 7 7 7 7 8 9 9 9 10 10 11 11 12 13 12 14 16
8 8 8 8 11 14 15 15 15 15 15 15 14 13 13 12 11 11 9 7 6 5 4 3 3 3 2 2 3 4 5 6 7 8 9 9 9 9 10 10 10 10 10 9 9 9 8 7 7 7 8 8 8 8 8 8 9 9 9 9 9 8 8 8 7 7 7 7 7 7 7 8 8 8 9 9 9 10 10 10 11 12 12 15 15
6 7 8 9 12 15 15 15 15 15 16 15 14 14 13 12 11 10 9 7 6 5 4 4 3 2 2 1 1 2 3 4 6 6 6 7 8 8 9 10 10 10 9 9 9 8 7 7 7 7 8 7 8 8 8 8 8 9 8 8 8 8 7 7 7 7 7 8 8 8 8 8 9 8 9 9 9 10 10 11 10 9 9 11 12
6 7 8 10 13 14 15 15 15 16 16 15 14 14 13 12 11 10 9 7 6 5 5 4 3 3 2 1 0 1 2 3 4 4 5 6 7 8 9 9 9 9 9 9 8 7 5 5 6 7 7 7 7 7 7 8 8 8 8 8 8 8 8 8 8 8 8 8 9 9 9 9 9 8 9 9 9 10 10 11 11 9 8 7 8
7 7 8 11 13 14 14 15 15 16 15 15 14 13 12 12 11 10 9 8 6 6 5 4 4 3 2 1 0 0 1 2 3 3 4 5 6 6 7 8 8 8 8 8 6 4 4 5 6 6 6 6 6 7 7 7 8 8 8 8 9 8 8 9 9 9 8 8 9 9 9 9 8 8 9 9 9 10 10 10 11 11 10 8 6
7 8 8 11 13 14 15 15 15 15 15 15 14 13 12 11 11 11 10 9 8 6 6 5 4 4 3 2 2 1 1 1 2 2 3 4 4 4 5 5 5 5 6 5 4 4 4 5 5 6 6 6 6 6 7 8 8 8 9 9 9 9 9 9 9 9 9 9 9 9 8 9 8 8 9 9 9 10 10 11 11 12 12 11 9
8 9 9 10 13 15 15 15 15 15 15 15 14 13 12 11 11 11 10 9 8 6 6 5 4 5 4 3 3 2 1 1 1 1 2 2 2 3 3 3 3 3 2 3 2 3 3 3 4 5 5 5 6 6 7 7 8 9 9 9 9 9 9 9 9 9 9 9 9 9 9 9 9 9 9 10 10 11 11 12 12 12 13 13 14
9 10 10 11 14 15 15 15 16 16 15 15 14 13 13 12 11 10 10 9 8 6 6 6 5 6 5 4 4 3 2 2 1 1 1 1 2 2 2 2 2 1 1 1 1 2 3 3 4 4 5 5 6 6 7 8 8 9 9 9 9 9 10 10 9 9 9 9 9 9 10 10 9 9 10 10 10 11 11 12 12 13 13 13 15
10 10 10 11 14 16 15 15 16 15 15 14 14 13 13 12 11 11 10 9 8 7 7 6 6 6 6 5 4 3 3 2 2 1 1 0 1 1 2 1 1 1 1 1 1 2 2 3 3 4 5 5 6 7 7 8 9 10 10 9 9 10 10 10 10 9 9 9 9 10 10 10 10 10 11 11 11 11 12 13 13 13 14 14 15
11 11 11 12 14 16 16 16 16 15 15 15 14 13 12 12 11 11 10 9 9 8 8 7 7 7 6 5 5 4 3 3 2 2 2 1 1 1 1 2 1 1 1 2 2 2 3 3 4 5 5 6 7 7 8 9 9 10 10 10 10 10 10 10 10 10 10 10 10 10 10 10 11 12 13 12 12 13 13 13 14 14 15 15 15
11 11 10 12 15 16 16 16 16 16 15 15 14 13 13 12 12 11 11 10 9 8 8 8 7 7 7 6 5 5 4 3 3 4 3 2 2 1 2 3 2 0 1 2 2 3 4 5 5 6 6 7 7 8 9 9 10 10 10 10 10 10 11 11 11 11 11 11 11 11 11 12 12 13 14 14 14 14 14 15 15 15 16 16 15
12 11 10 12 15 15 16 16 17 16 16 16 14 14 14 13 12 12 11 11 10 9 8 8 8 8 7 7 6 5 4 4 4 4 3 3 4 3 3 4 3 2 3 3 4 5 5 6 6 7 8 8 9 9 10 10 10 10 10 11 11 11 11 12 12 12 12 12 12 13 15 15 15 15 15 15 14 14 15 16 17 16 17 17 17
12 12 12 13 14 15 16 17 17 17 17 16 16 15 14 13 12 12 12 12 11 9 9 9 9 9 9 8 7 6 5 5 5 4 3 4 5 5 5 5 4 4 5 5 6 6 6 7 8 8 9 10 10 11 11 12 11 11 12 12 12 12 12 13 13 13 13 14 15 17 17 15 15 16 16 16 15 14 15 16 17 17 17 17 17
14 14 13 13 13 14 16 17 17 17 17 17 16 15 14 13 13 12 12 12 11 10 9 9 9 10 10 8 7 6 6 5 4 4 4 6 6 5 5 4 4 5 5 6 7 7 7 8 9 9 10 11 11 12 12 12 13 13 13 14 14 14 14 15 16 16 16 17 18 18 18 17 17 17 18 18 17 16 17 17 17 18 17 17 18
13 13 13 13 13 14 17 18 18 18 18 17 16 16 15 14 13 12 11 11 11 10 10 10 10 10 10 9 8 7 6 5 5 6 7 7 6 4 4 4 4 5 5 6 7 7 8 9 9 10 11 11 12 12 13 13 13 14 14 15 16 16 17 17 17 18 19 19 20 20 19 19 19 20 20 21 20 20 19 19 18 18 18 18 18
12 13 13 14 14 14 16 19 19 18 18 17 16 16 15 14 13 12 11 11 11 11 12 11 11 10 10 9 8 7 7 7 7 8 8 7 5 4 4 4 4 5 6 6 6 7 8 8 9 10 10 11 12 12 13 14 14 15 15 16 16 17 17 18 18 19 20 20 21 21 22 22 22 23 23 23 23 23 22 20 19 18 18 18 18
14 15 15 15 15 14 16 19 19 19 19 17 16 15 14 13 12 11 11 12 12 12 12 12 11 11 10 9 9 9 9 9 9 9 7 6 5 5 5 5 5 6 6 7 7 8 9 9 10 10 10 11 11 12 13 13 13 14 16 16 17 17 18 18 18 19 21 22 22 23 24 25 26 26 26 25 24 24 24 24 22 20 19 18 18
14 15 15 15 15 14 16 19 19 19 19 18 16 15 14 13 12 12 12 12 13 13 13 12 12 11 10 11 12 11 11 10 9 8 7 6 6 5 5 6 7 7 8 9 10 11 11 11 11 12 12 13 13 13 14 14 14 15 17 18 19 20 21 22 22 22 23 24 25 26 27 28 29 29 28 26 25 24 25 26 25 22 20 18 18
14 15 14 14 14 14 16 18 19 20 20 18 16 15 15 13 12 13 13 13 14 14 13 13 12 12 13 14 14 12 11 10 8 8 7 7 7 6 7 8 9 9 10 11 11 12 13 14 14 16 17 18 19 19 17 17 17 18 19 20 20 21 22 24 25 27 28 29 28 27 28 29 29 29 28 26 26 26 26 26 26 25 23 22 20
14 14 13 14 14 14 15 17 20 20 20 18 16 15 15 14 13 14 14 14 14 14 13 13 14 15 16 15 14 11 10 9 8 8 8 7 7 9 10 11 11 11 11 12 13 14 16 18 18 19 21 22 23 23 20 18 19 20 20 21 21 20 20 21 24 27 29 30 30 28 27 27 28 29 29 28 27 27 27 27 27 27 28 28 27
13 12 13 13 13 15 17 18 19 20 20 19 17 16 15 14 14 15 14 14 14 14 15 15 17 17 16 15 12 10 10 9 9 9 9 8 9 11 12 13 13 13 14 15 17 19 20 20 20 21 23 24 25 25 22 20 20 20 21 21 21 21 21 21 22 23 23 24 25 23 21 22 24 25 26 26 27 27 27 26 27 28 28 29 30
11 11 11 11 12 14 16 18 18 18 19 18 17 16 15 14 14 15 15 15 16 16 18 18 18 17 16 13 11 10 10 10 10 9 9 9 10 12 14 14 14 15 16 18 20 21 21 21 21 22 24 24 26 26 23 20 20 21 22 22 23 24 24 24 25 26 25 24 24 21 20 21 21 20 21 23 24 26 27 27 28 29 30 30 31
9 10 10 11 12 14 16 17 17 18 18 18 17 16 15 14 15 15 16 16 17 18 18 18 17 16 15 12 11 11 11 11 10 10 10 10 11 13 15 16 15 15 16 16 17 18 19 20 21 23 24 25 26 26 23 20 20 21 22 23 24 25 25 25 25 25 26 25 24 22 23 24 23 20 20 21 22 23 26 28 28 30 31 32 33
9 9 10 12 14 16 17 17 18 19 19 18 17 17 16 16 16 17 17 18 18 18 17 17 17 16 14 13 12 12 11 11 11 10 11 12 13 15 17 17 16 16 15 16 17 19 20 21 22 23 24 25 26 25 23 21 21 22 22 22 23 23 24 24 24 24 23 21 20 21 22 23 23 23 23 23 23 23 25 27 29 30 31 32 35
7 8 10 12 14 16 17 18 19 19 19 18 17 18 18 18 18 18 18 18 17 17 17 16 15 15 14 13 13 12 13 13 12 12 14 15 16 18 18 17 16 16 16 16 18 19 20 21 21 22 24 26 27 26 23 21 20 21 22 22 22 22 22 22 23 23 22 20 21 22 23 22 24 25 26 26 26 26 27 28 29 30 30 31 35
7 9 11 12 14 16 18 21 21 19 18 19 19 20 19 19 19 19 18 17 16 16 15 15 14 14 14 13 13 14 15 16 15 16 17 17 18 18 17 16 16 17 17 18 18 18 20 21 21 22 24 25 26 26 23 20 20 20 21 22 22 22 22 22 22 22 21 20 22 24 25 25 26 26 26 27 27 28 29 30 30 29 28 29 31
8 11 13 14 15 17 19 21 21 19 18 20 20 20 19 18 18 18 17 16 16 16 15 14 14 13 13 14 15 16 17 17 17 18 18 18 18 18 18 17 16 16 18 19 17 17 19 19 19 21 23 22 23 26 25 23 21 20 21 22 21 22 22 22 20 21 21 21 21 23 24 26 28 28 28 28 29 30 30 30 29 28 27 27 28
8 11 14 16 18 20 20 20 20 20 20 20 20 19 18 18 16 16 15 16 17 17 14 13 13 13 14 15 16 17 18 18 18 18 18 18 18 19 19 18 17 16 16 16 16 16 17 18 19 21 24 24 25 27 28 27 24 22 21 22 22 22 23 22 20 21 22 22 22 23 24 25 27 29 30 31 32 32 32 32 30 27 26 27 27
8 12 15 16 18 21 21 20 20 21 20 20 20 18 17 16 15 15 16 18 17 15 13 12 12 13 15 16 16 17 18 18 18 18 18 18 19 20 20 19 18 18 18 18 18 18 18 20 22 25 27 28 29 30 30 28 25 24 23 23 24 24 24 23 22 22 22 23 23 23 24 24 25 27 28 31 33 33 32 32 31 30 31 30 28
8 12 15 15 15 18 19 18 19 21 21 21 20 18 16 16 16 16 18 17 16 15 14 13 13 13 15 16 16 17 17 17 17 18 18 19 20 20 20 20 20 20 20 22 22 20 20 23 26 28 30 30 30 30 30 27 25 24 23 23 25 25 24 24 24 23 22 23 23 23 23 23 24 25 26 29 32 32 31 30 30 30 32 32 31
10 12 15 16 16 15 16 17 19 20 21 22 21 19 17 17 18 18 18 16 16 16 15 13 14 14 15 16 16 17 17 17 18 19 19 20 22 20 18 19 21 22 22 23 24 24 25 26 27 28 29 29 28 27 27 27 25 24 22 23 24 25 25 25 27 27 25 23 23 23 24 24 24 25 27 30 31 30 29 29 29 28 29 30 31
11 12 16 19 17 15 14 16 19 20 21 22 22 20 18 19 19 18 16 16 16 15 14 14 15 15 16 16 17 17 17 18 20 20 19 21 22 21 20 20 21 20 18 19 19 19 19 20 20 21 22 23 23 24 25 26 26 25 23 21 22 24 25 26 27 29 28 26 24 23 25 25 26 28 30 31 31 30 30 29 27 25 25 25 24
11 12 16 20 19 16 15 15 16 19 21 22 22 21 20 20 19 16 16 16 15 14 15 15 15 16 16 17 18 18 19 20 20 19 18 20 20 19 19 19 17 16 16 16 16 16 16 16 16 17 18 19 21 22 24 25 26 26 24 21 21 22 23 24 26 28 28 27 27 27 28 29 30 30 31 30 28 27 26 26 24 22 21 18 15
11 12 16 17 15 14 14 13 14 18 20 21 22 22 21 20 18 16 16 16 15 15 16 16 16 17 18 18 19 19 19 20 21 20 18 18 17 16 16 16 15 15 16 17 16 16 16 16 16 17 18 18 18 19 21 23 23 23 23 21 20 21 22 23 25 27 28 28 28 29 30 30 30 30 29 27 25 24 25 26 25 25 23 20 17
11 14 17 16 12 12 13 13 13 16 20 21 21 22 21 20 18 17 17 16 16 16 16 17 18 18 18 18 19 21 20 19 20 19 17 16 15 15 16 16 15 15 15 16 16 16 16 16 16 17 17 17 16 16 17 17 17 19 21 23 22 23 23 22 23 25 27 27 28 29 29 30 30 31 30 30 29 28 26 26 25 26 26 25 23
10 14 17 15 12 12 13 13 13 15 19 21 21 21 21 20 19 19 18 17 16 16 17 17 17 18 18 17 16 18 19 18 18 17 16 16 16 17 17 18 19 18 17 16 16 16 17 17 16 15 15 16 15 15 16 16 17 19 21 21 21 21 20 21 24 26 26 27 28 29 28 26 25 26 26 25 25 24 23 24 24 25 26 26 25
10 14 17 15 13 13 14 14 14 15 17 19 20 20 21 20 20 20 19 18 17 17 17 18 18 17 17 15 13 14 16 17 17 16 16 17 18 18 19 20 22 24 24 23 21 20 21 21 19 18 17 16 17 19 20 20 21 22 23 24 24 24 22 23 26 27 26 26 25 24 22 20 19 20 21 21 22 22 22 24 26 26 26 26 25
9 12 13 13 13 15 15 15 15 14 16 18 18 19 19 20 20 20 19 19 18 17 16 17 18 18 16 14 14 14 14 14 15 15 16 17 18 19 21 23 25 26 26 26 25 26 27 26 24 24 24 24 25 27 25 24 24 26 26 26 25 24 24 24 24 24 23 23 21 19 18 19 20 20 21 21 22 22 22 23 24 25 26 26 26
9 10 10 10 11 14 15 15 14 14 15 16 16 17 18 19 20 20 19 19 19 17 14 13 14 15 15 14 14 14 13 14 14 14 15 16 17 18 20 22 25 26 26 25 26 27 28 28 27 29 30 28 28 27 26 26 26 26 26 26 25 24 25 26 26 24 24 24 22 19 18 20 21 22 23 23 22 22 22 22 22 23 24 24 25
Wind_Direction
211 206 200 195 197 199 201 204 205 209 212 213 216 218 219 220 222 223 224 220 217 217 221 224 226 230 232 236 241 245 246 242 242 249 253 253 250 256 267 273 275 273 274 277 279 279 278 273 263 266 275 279 276 268 261 256 263 276 284 288 288 286 288 281 275 291 299 298 296 294 293 289 280 263 254 263 265 262 269 271 271 273 268 270 281
199 192 190 192 197 199 200 203 206 209 212 214 215 217 218 219 221 223 222 218 216 219 221 224 227 232 237 244 249 254 253 249 250 251 252 251 243 248 263 272 274 273 274 274 275 274 274 270 263 260 261 263 265 262 257 261 271 277 278 280 281 277 280 279 272 282 296 302 305 303 297 289 279 250 235 247 257 251 251 251 258 265 257 263 276
194 191 192 196 197 195 197 201 206 210 212 214 214 215 217 218 220 221 220 218 219 222 224 229 233 237 244 248 252 256 256 254 257 257 255 256 254 256 267 273 272 270 271 272 272 272 270 265 259 258 256 255 255 257 258 258 261 259 253 262 275 277 281 281 262 255 290 307 304 294 296 303 296 267 240 224 224 233 240 241 242 247 249 260 270
198 198 197 197 195 192 196 201 203 206 209 211 210 210 212 214 215 214 216 218 220 224 230 238 244 246 248 252 256 260 263 263 264 264 262 263 265 264 264 266 265 260 261 266 268 269 267 263 258 255 254 254 252 253 255 254 249 239 233 239 256 270 279 280 258 242 274 299 301 294 304 303 282 297 302 243 239 237 233 238 229 227 240 253 262
202 201 198 197 194 192 195 198 197 199 205 207 206 206 208 210 212 212 216 220 223 227 232 240 246 249 251 256 260 262 263 261 260 261 260 258 259 257 252 249 248 249 252 256 257 257 257 255 254 254 254 254 252 251 253 255 251 241 232 230 242 257 268 272 265 259 251 247 268 285 300 292 277 326 338 303 283 262 235 243 230 224 233 242 255
208 207 204 199 193 190 190 190 190 196 202 205 204 204 205 207 210 213 216 220 224 225 226 229 233 236 239 244 249 253 256 251 249 257 259 255 254 254 249 239 237 243 247 248 247 247 249 250 250 250 251 252 250 250 251 252 250 242 233 231 242 249 255 264 263 263 258 237 237 249 264 276 293 317 322 297 294 275 255 256 234 229 236 237 247
210 210 208 198 188 184 183 183 187 194 195 192 192 196 199 200 201 204 207 211 215 215 215 218 222 226 231 237 245 254 261 262 266 274 275 272 271 266 259 252 248 247 244 244 245 245 245 248 250 248 248 250 249 248 248 248 250 243 230 227 238 243 246 256 259 262 265 251 239 243 253 263 277 291 292 290 297 283 276 276 255 243 238 235 244
206 205 202 193 186 185 185 184 183 181 177 172 175 185 190 190 187 189 191 193 197 198 202 208 214 221 227 237 247 254 261 268 274 277 276 274 273 270 265 262 258 252 246 244 243 245 245 245 249 248 246 247 246 246 246 247 247 238 225 221 233 245 246 250 254 258 264 265 264 259 253 257 265 271 272 275 284 286 284 282 274 268 253 240 242
205 198 194 191 189 187 181 171 162 157 160 164 166 168 170 172 172 173 175 176 181 185 192 201 209 218 227 238 248 254 260 267 271 273 273 272 271 268 265 264 260 255 250 244 240 241 244 244 247 248 247 246 245 245 246 247 242 234 230 228 232 240 242 241 244 250 260 268 276 274 268 267 266 265 267 267 268 276 283 282 283 284 276 259 249
197 183 176 176 173 168 158 148 144 147 153 156 155 156 157 158 160 160 159 161 167 175 185 195 205 215 228 238 248 257 263 268 270 270 269 269 269 267 265 265 264 261 257 249 243 240 241 244 245 248 249 247 247 247 247 247 241 236 239 241 237 233 235 237 238 243 255 264 270 274 277 277 273 268 264 262 263 266 271 281 284 284 283 275 271
170 159 151 148 145 144 142 140 142 145 149 150 150 152 152 151 151 148 145 145 145 148 159 171 187 207 223 236 247 258 264 267 269 270 270 270 270 270 270 269 267 265 263 259 251 242 241 246 246 248 252 251 249 248 250 247 240 238 240 240 236 231 234 237 237 239 246 256 259 261 266 271 273 275 274 274 276 275 276 283 286 286 288 286 285
158 152 144 139 138 143 144 143 144 146 149 149 149 148 147 146 146 141 137 136 134 134 140 149 166 190 217 240 252 259 264 267 270 273 274 274 273 273 273 272 271 268 266 264 256 246 244 246 247 251 254 253 250 248 252 248 239 238 238 234 232 230 230 231 234 239 241 246 251 255 261 265 267 271 276 279 280 283 286 288 291 295 296 290 291
159 154 149 147 149 150 150 149 149 152 154 150 147 145 143 146 147 143 138 136 136 140 144 148 167 192 221 246 259 267 271 272 275 276 276 275 275 275 274 274 272 270 267 264 259 256 253 247 247 256 259 256 252 249 252 248 239 238 237 233 231 228 229 229 232 237 238 244 253 260 262 264 267 269 273 276 276 279 282 283 286 290 288 287 291
158 153 151 153 154 153 154 154 154 156 155 150 147 147 146 148 150 143 139 143 146 150 154 159 175 197 220 244 263 275 278 277 277 276 276 277 276 276 275 274 273 271 269 267 264 264 260 252 254 262 263 259 254 251 250 244 236 236 238 235 232 232 233 232 233 235 239 244 250 256 260 260 263 266 268 270 272 273 275 279 285 287 284 284 287
153 150 151 153 154 155 157 157 157 157 155 151 150 151 151 151 151 146 145 151 153 154 161 166 177 188 194 226 265 280 281 280 277 276 278 279 280 280 277 274 273 271 269 268 267 262 255 257 264 264 261 257 254 250 246 238 230 231 236 234 231 233 233 231 233 236 239 241 243 248 253 255 257 260 262 263 265 268 270 276 283 288 287 285 285
154 153 152 154 156 157 159 159 159 158 156 154 153 156 156 151 150 152 153 155 155 159 167 167 170 171 162 172 289 297 287 283 277 279 287 290 287 282 277 274 271 270 268 269 267 258 252 260 264 259 255 252 250 245 237 231 227 225 230 231 229 230 230 231 236 241 242 241 241 243 246 251 254 256 259 261 262 264 267 271 273 277 282 288 288
162 162 159 159 161 162 163 162 161 160 158 156 155 156 155 152 154 157 157 160 162 166 170 166 166 166 160 151 130 248 271 283 286 293 300 297 291 285 280 277 273 270 267 267 266 259 257 260 257 254 250 245 242 238 228 226 226 225 229 231 229 227 230 234 237 240 243 242 241 239 241 249 253 254 257 259 261 263 265 265 265 266 269 277 284
164 168 166 166 167 167 167 165 163 161 157 154 153 153 153 155 161 163 163 166 168 170 169 168 168 167 172 172 169 187 209 258 286 304 308 301 299 297 292 287 285 280 270 267 271 266 259 253 247 245 240 234 232 229 225 225 225 228 231 231 229 229 232 235 236 238 241 242 242 239 241 248 251 253 257 259 260 262 262 262 262 262 261 265 272
172 175 174 173 173 172 169 165 162 158 155 154 153 154 156 160 163 164 168 170 171 171 168 169 173 174 180 186 182 184 197 233 274 307 315 312 314 313 311 302 299 300 278 265 263 255 243 234 232 230 226 226 226 225 225 225 225 229 232 231 230 229 231 234 237 239 238 238 241 241 244 250 253 254 256 257 256 255 256 257 256 257 256 258 264
180 180 179 177 176 174 169 164 161 158 157 157 159 161 162 163 164 167 171 171 171 170 170 175 179 178 182 186 187 189 198 208 224 266 291 341 337 331 335 329 321 311 282 262 250 226 217 218 219 217 218 222 223 223 224 224 226 229 231 232 231 228 229 234 237 237 236 235 238 241 245 249 252 256 257 257 256 253 253 253 252 253 253 252 256
183 180 180 178 175 174 169 164 162 161 162 163 165 166 165 166 169 173 174 173 174 174 178 182 184 185 187 190 196 198 202 206 211 220 215 323 332 349 344 339 14 358 243 197 199 208 207 211 213 216 222 224 228 229 227 225 227 230 231 232 233 230 231 235 237 238 238 236 236 239 244 248 250 254 257 257 259 258 256 254 252 251 252 250 251
184 180 178 175 174 172 168 167 166 168 169 170 170 168 169 172 174 177 179 179 179 179 182 186 188 189 190 194 202 203 205 211 215 215 209 217 254 336 293 221 155 15 239 188 185 204 208 214 218 223 226 229 235 237 234 232 231 232 233 233 233 235 236 238 239 241 241 239 240 240 242 248 254 258 259 258 260 262 260 259 256 254 255 253 250
182 179 177 175 174 172 170 172 173 175 176 174 174 172 174 178 178 180 183 181 181 183 185 187 190 192 194 198 203 203 207 215 220 219 211 212 238 271 267 231 199 279 257 222 222 224 221 225 228 230 231 235 241 242 241 242 241 238 238 237 237 238 240 242 243 244 244 242 242 243 248 255 260 263 264 263 262 263 262 262 261 259 259 260 257
180 179 178 175 174 173 174 178 179 181 181 178 178 178 178 180 180 183 185 182 182 183 185 188 191 194 196 198 199 199 204 211 213 212 207 226 247 251 254 253 252 259 256 247 241 234 232 235 237 238 240 243 246 246 246 247 247 245 245 244 243 243 244 245 246 247 246 244 244 250 256 259 260 263 266 267 264 262 262 262 263 261 260 261 261
182 183 180 176 178 179 180 184 184 184 183 181 182 181 180 181 181 183 184 183 183 182 186 191 195 197 197 199 201 201 205 212 211 209 219 241 251 249 249 257 260 257 255 250 247 245 244 243 245 248 249 250 251 250 249 248 248 249 251 251 250 249 249 250 251 251 250 249 252 256 257 255 255 259 262 264 263 262 262 262 262 262 262 263 263
186 185 184 182 184 185 185 186 185 185 183 182 183 182 181 182 182 182 183 182 183 183 187 193 198 199 198 199 203 205 208 208 203 209 231 247 254 256 258 260 258 256 256 255 254 253 252 252 254 255 255 255 255 252 252 251 250 250 252 255 255 255 255 256 255 255 254 255 256 256 254 251 251 254 257 260 261 261 261 260 259 260 262 263 265
189 187 186 186 188 190 189 188 186 185 183 182 182 181 181 181 181 182 182 182 185 185 188 195 200 200 197 200 208 209 205 200 208 231 250 262 266 262 255 254 255 258 259 257 257 256 257 259 259 259 258 257 257 255 254 253 252 253 254 256 257 257 257 258 257 256 256 256 255 254 252 250 251 254 257 259 259 258 257 256 256 258 258 258 260
192 191 190 191 192 191 191 189 186 183 181 181 181 181 181 181 181 181 182 183 186 188 190 196 202 202 201 205 208 202 199 214 238 258 267 272 265 250 247 250 256 260 259 257 257 259 260 260 259 259 259 258 257 256 255 254 253 254 255 255 255 254 256 257 256 256 256 254 253 253 252 251 253 257 260 261 261 260 258 254 253 253 253 253 254
198 197 195 195 194 191 189 188 185 182 180 179 180 180 180 180 180 181 182 185 188 192 194 197 201 204 206 206 203 201 216 242 263 271 269 257 244 242 248 251 256 259 257 254 255 257 259 259 259 259 258 258 258 254 252 250 250 252 254 254 253 252 253 255 254 254 255 255 255 255 253 253 258 264 267 266 264 261 258 256 255 253 248 249 250
203 202 200 196 194 191 187 184 184 182 180 180 180 180 181 181 181 182 184 189 192 194 197 200 202 206 207 206 209 220 243 262 268 262 249 237 238 244 248 252 258 258 255 258 262 261 259 258 258 257 256 254 254 252 249 249 251 255 257 258 258 258 258 258 258 257 256 257 258 257 256 257 262 267 268 263 257 254 252 252 254 251 243 241 244
207 203 200 196 193 189 184 184 185 184 182 181 180 179 181 181 182 184 187 192 193 195 200 203 204 207 208 212 224 243 258 261 253 243 236 237 242 247 252 259 262 259 259 264 265 260 258 261 262 261 260 259 259 257 256 256 259 260 260 260 259 259 259 259 260 260 260 260 260 260 259 259 260 262 262 258 253 251 250 249 249 247 243 239 239
215 205 196 192 190 187 185 185 184 182 181 181 179 178 180 183 185 186 189 193 193 195 199 201 205 210 215 225 239 249 250 245 238 234 235 240 247 253 260 265 265 262 263 264 262 261 266 270 270 268 267 267 266 265 262 261 263 263 262 261 260 259 258 256 257 259 260 259 258 257 257 257 258 259 260 259 256 254 253 250 249 248 246 244 242
225 208 194 191 190 188 186 184 181 180 180 179 177 177 180 183 185 186 187 190 192 195 200 206 212 218 226 236 241 238 234 234 233 234 239 243 248 256 262 266 266 266 267 267 269 272 273 274 273 272 272 273 272 270 267 265 265 266 264 264 263 262 261 260 259 258 257 256 254 251 249 249 253 257 256 253 252 254 255 254 251 250 248 247 247
225 207 194 189 186 185 182 179 178 176 174 175 176 177 179 181 183 183 184 188 194 201 208 214 219 226 232 235 231 227 229 231 232 236 241 244 249 258 264 267 269 270 273 276 277 278 277 275 273 274 276 275 274 273 272 268 267 267 266 265 264 264 263 263 262 261 261 260 256 252 250 250 252 252 248 248 250 253 255 256 254 252 250 248 248
215 201 192 184 178 176 173 172 172 168 167 170 174 173 173 176 179 181 184 192 200 207 214 220 224 229 230 225 222 223 226 230 234 236 240 245 251 259 267 270 271 272 273 274 274 275 275 274 274 275 277 276 274 275 274 270 268 268 267 266 266 265 263 263 261 260 261 260 256 253 253 253 253 251 246 247 251 252 253 254 254 254 253 251 249
206 193 184 177 173 171 167 164 163 162 164 168 170 172 173 176 182 187 193 200 206 211 217 223 226 227 223 218 218 221 225 230 233 236 244 251 255 261 268 271 271 270 268 266 268 271 272 273 275 277 279 278 277 276 274 270 268 268 267 266 266 265 263 262 262 261 260 258 254 252 251 250 249 250 248 247 250 252 250 251 252 253 253 252 253
193 175 169 165 164 162 160 160 160 162 166 167 169 176 180 183 188 195 201 205 210 215 220 222 223 223 219 216 216 220 228 235 239 245 253 258 261 266 269 269 268 267 265 264 266 270 271 273 274 275 277 279 281 282 278 272 268 267 266 265 264 263 262 261 260 259 259 257 253 249 248 249 249 250 249 250 252 253 251 250 251 253 252 250 253
154 147 144 145 150 154 160 167 166 164 169 173 176 182 186 189 195 200 204 206 209 216 218 217 219 220 218 218 221 228 236 243 247 252 257 261 264 266 266 266 266 265 266 266 266 268 270 271 270 272 275 278 280 283 282 276 270 266 264 263 262 262 261 260 260 259 257 256 254 250 247 248 249 249 249 251 254 254 252 251 251 252 251 249 251
151 148 146 145 152 157 163 170 169 167 173 180 184 188 190 193 199 202 204 205 210 215 215 215 217 217 217 222 229 236 242 247 252 255 259 260 261 262 264 264 262 263 267 269 267 266 267 267 267 270 273 273 273 278 283 282 276 269 265 262 260 260 260 259 258 259 258 256 254 252 249 249 250 251 251 253 254 254 251 249 248 249 249 248 249
146 149 156 157 161 163 164 169 172 173 178 183 188 191 194 197 199 199 201 208 214 216 215 215 216 216 219 226 234 241 245 249 253 256 257 257 258 262 265 265 262 261 264 264 263 262 263 263 264 267 270 271 271 274 282 286 282 272 265 262 259 257 257 258 257 257 257 256 254 252 251 249 250 253 254 255 257 257 255 250 245 243 244 246 249
150 158 163 162 167 173 172 174 177 178 181 187 190 191 193 195 194 198 207 214 217 216 213 211 212 219 227 232 238 244 249 252 255 255 255 256 260 264 266 265 264 264 264 264 264 264 263 265 268 270 272 275 276 277 283 287 283 273 265 261 259 256 254 256 257 256 255 255 254 253 252 251 251 253 255 257 259 263 262 256 248 243 245 249 249
154 166 168 164 168 175 175 176 180 182 186 191 192 191 194 195 197 207 215 217 217 219 219 216 215 221 231 237 241 245 248 251 253 253 255 258 262 266 266 266 266 265 266 267 267 265 265 266 270 274 276 278 280 282 285 287 285 278 268 261 258 256 254 254 255 255 254 253 253 253 253 252 252 255 258 258 260 265 267 264 258 253 252 253 250
163 172 177 174 172 172 174 177 181 187 191 193 194 195 198 200 208 217 219 217 220 224 225 223 221 225 233 238 241 244 244 247 251 254 257 261 263 263 263 264 267 268 268 268 267 267 268 269 271 273 276 279 281 283 286 288 288 284 275 264 259 257 254 253 253 254 254 254 254 254 254 255 256 258 259 259 261 265 266 264 263 261 258 259 259
179 180 181 181 178 171 172 179 184 189 194 197 199 200 202 209 218 222 220 219 224 226 224 223 225 230 235 237 240 244 246 250 254 256 256 258 261 262 261 262 264 264 262 262 263 262 262 262 264 267 271 274 278 281 284 286 287 285 279 269 263 260 258 255 254 256 257 256 256 255 255 256 256 257 259 261 266 269 268 266 267 268 269 271 270
182 182 183 187 185 176 171 175 185 193 197 201 205 205 208 217 223 222 221 223 227 225 224 226 229 233 238 241 244 249 251 252 253 251 251 254 258 260 260 259 256 251 248 250 254 254 253 254 256 259 261 266 271 275 278 282 284 285 281 273 265 262 260 257 257 258 259 258 258 259 259 260 260 262 265 269 272 272 272 273 275 277 277 275 268
176 179 184 186 181 176 172 172 183 196 201 206 210 212 217 224 225 223 225 229 230 228 228 231 233 237 242 246 249 253 253 252 252 250 250 253 253 251 252 252 247 244 245 248 249 251 251 252 254 257 260 263 267 269 272 277 281 282 283 281 277 273 269 263 260 260 260 261 261 262 263 265 268 269 271 272 272 271 272 273 274 272 269 264 259
182 184 185 181 172 175 179 177 182 196 204 210 214 218 224 228 227 227 230 232 233 233 232 234 236 241 246 250 253 254 252 251 252 252 250 249 246 243 244 245 242 241 243 246 249 251 251 251 253 256 259 261 261 261 264 269 271 275 282 287 286 282 279 275 269 265 264 264 264 264 264 264 265 267 267 267 267 268 267 266 264 263 260 257 255
185 187 186 181 175 180 183 182 186 196 205 212 216 221 226 228 228 229 232 233 235 235 234 235 239 244 247 250 252 252 250 247 247 246 244 244 242 239 237 239 242 245 245 247 248 248 248 249 251 254 259 262 261 258 260 262 262 266 272 276 276 273 270 271 273 274 273 270 268 267 264 261 259 260 260 259 258 257 256 254 254 254 254 253 252
183 189 189 187 188 189 189 192 197 199 206 213 218 223 228 229 230 231 232 233 235 236 237 239 242 246 247 246 245 246 246 245 246 245 245 246 244 240 239 244 251 255 258 258 257 254 256 256 254 253 255 256 259 262 265 268 268 267 266 267 268 267 263 263 269 273 272 267 262 258 254 249 246 246 246 246 246 245 245 247 248 248 248 248 247
183 190 191 193 200 202 202 204 206 205 209 214 219 225 229 232 233 233 233 234 233 234 238 242 243 245 245 241 239 241 240 240 244 248 251 253 251 246 245 250 257 264 268 266 261 260 263 265 262 261 260 261 267 274 277 276 275 274 273 273 273 273 269 266 268 270 265 258 253 246 240 238 239 240 241 240 240 239 239 241 242 242 241 241 240
182 182 183 191 202 208 211 213 211 210 213 217 222 228 233 236 237 235 234 234 232 230 233 238 239 241 242 238 237 239 238 240 247 251 252 258 263 260 254 254 258 263 266 265 260 261 265 265 265 267 269 270 273 276 276 277 279 281 281 279 278 278 276 273 273 274 270 264 258 252 244 239 238 241 244 244 242 242 241 241 241 240 238 236 235